sat.trackr.live / text

‹ back to catalog

STARLINK-36453

NORAD 67341 · 2026-003H

PAYLOAD ACTIVE UNKNOWN

§ Identity

Operator
Country
US
Launch date
2026-01-09
Launch site
AFETR
Launch vehicle
Mass (kg)
RCS (m²)

Purposes: comms

External: N2YO · Heavens-Above · Gunter

§ Orbital elements

Epoch: 2026-05-25T01:19:29.500320Z

Period
94.27 min
Inclination
43.0003°
Eccentricity
0.0001002
Mean motion
15.27590830 rev/d
Perigee alt
482.3 km
Apogee alt
483.7 km
Semi-major
6,861.2 km
B*
7.7465e-4
RAAN
155.7443°
Arg perigee
261.9292°
Mean anomaly
98.1446°
Rev number
2,050

§ Raw data

STARLINK-364531 67341U 26003H   26145.05520255  .00021123  00000+0  77465-3 0  99942 67341  43.0003 155.7443 0001002 261.9292  98.1446 15.27590830 20505

JSON: /api/v1/satellites/67341 · /tle

For live sub-satellite position, see the globe view (requires WebGL).

§ Visibility from observer

Set your observer location to see the next 7 days of passes ≥ 10°. The values pass through the URL so the page stays shareable.

No JS? Fill the form by hand. The geolocation button needs JavaScript.